Hourly Weather Homichi

Today, 13 April, Tuesday

Time Temperature Precipitation Wind Pressure Humidity
00:00 +10°C° 0 mm 1 mps 753 mmHg 91%
01:00 +9°C° 0 mm 0 mps 753 mmHg 91%
02:00 +9°C° 0 mm 0 mps 753 mmHg 91%
03:00 +10°C° 0 mm 1 mps 752 mmHg 91%
04:00 +10°C° 0 mm 1 mps 752 mmHg 92%
05:00 +9°C° 0 mm 1 mps 752 mmHg 92%
06:00 +10°C° 0 mm 1 mps 752 mmHg 90%
07:00 +11°C° 0 mm 1 mps 752 mmHg 87%
08:00 +11°C° 0 mm 1 mps 752 mmHg 83%
09:00 +12°C° 0 mm 1 mps 752 mmHg 83%
10:00 +12°C° 0 mm 1 mps 752 mmHg 83%
11:00 +12°C° 0 mm 1 mps 752 mmHg 84%
12:00 +12°C° 0.2 mm 1 mps 752 mmHg 86%
13:00 +12°C° 0.2 mm 2 mps 752 mmHg 88%
14:00 +10°C° 0.2 mm 2 mps 752 mmHg 91%
15:00 +12°C° 0.1 mm 2 mps 751 mmHg 90%
16:00 +12°C° 0.1 mm 2 mps 751 mmHg 89%
17:00 +12°C° 0.1 mm 2 mps 751 mmHg 88%
18:00 +10°C° 0.1 mm 2 mps 751 mmHg 94%
19:00 +9°C° 0.1 mm 2 mps 751 mmHg 94%
20:00 +9°C° 0.1 mm 2 mps 751 mmHg 95%
21:00 +9°C° 0 mm 2 mps 751 mmHg 95%
22:00 +10°C° 0 mm 1 mps 750 mmHg 94%
23:00 +10°C° 0 mm 1 mps 750 mmHg 94%

Tomorrow, 14 April, Wednesday

Time Temperature Precipitation Wind Pressure Humidity
00:00 +10°C° 0 mm 1 mps 750 mmHg 94%
01:00 +9°C° 0 mm 2 mps 750 mmHg 94%
02:00 +9°C° 0 mm 2 mps 749 mmHg 94%
03:00 +9°C° 0 mm 2 mps 749 mmHg 94%
04:00 +8°C° 0 mm 2 mps 749 mmHg 94%
05:00 +8°C° 0 mm 2 mps 749 mmHg 95%
06:00 +9°C° 0 mm 2 mps 749 mmHg 93%
07:00 +9°C° 0 mm 2 mps 749 mmHg 92%
08:00 +9°C° 0 mm 2 mps 749 mmHg 90%
09:00 +10°C° 0 mm 3 mps 749 mmHg 84%
10:00 +11°C° 0 mm 4 mps 749 mmHg 78%
11:00 +12°C° 0 mm 4 mps 749 mmHg 71%
12:00 +12°C° 0.1 mm 4 mps 749 mmHg 69%
13:00 +13°C° 0.1 mm 4 mps 749 mmHg 67%
14:00 +13°C° 0.1 mm 4 mps 748 mmHg 65%
15:00 +13°C° 0.1 mm 4 mps 748 mmHg 65%
16:00 +13°C° 0.1 mm 3 mps 748 mmHg 65%
17:00 +14°C° 0.1 mm 2 mps 748 mmHg 65%
18:00 +13°C° 0 mm 2 mps 748 mmHg 69%
19:00 +12°C° 0 mm 1 mps 748 mmHg 73%
20:00 +11°C° 0 mm 1 mps 748 mmHg 78%
21:00 +10°C° 0 mm 1 mps 748 mmHg 79%
22:00 +10°C° 0 mm 1 mps 748 mmHg 81%
23:00 +10°C° 0 mm 1 mps 748 mmHg 82%

Day after tomorrow, 15 April, Thursday

Time Temperature Precipitation Wind Pressure Humidity
00:00 +9°C° 0 mm 1 mps 748 mmHg 83%
01:00 +9°C° 0 mm 1 mps 748 mmHg 84%
02:00 +9°C° 0 mm 1 mps 748 mmHg 85%
03:00 +8°C° 0 mm 1 mps 748 mmHg 86%
04:00 +8°C° 0 mm 1 mps 748 mmHg 87%
05:00 +8°C° 0 mm 1 mps 748 mmHg 87%
06:00 +9°C° 0 mm 1 mps 748 mmHg 83%
07:00 +10°C° 0 mm 1 mps 748 mmHg 79%
08:00 +12°C° 0 mm 1 mps 748 mmHg 75%
09:00 +13°C° 0.2 mm 2 mps 748 mmHg 70%
10:00 +14°C° 0.2 mm 2 mps 748 mmHg 65%
11:00 +15°C° 0.2 mm 2 mps 748 mmHg 60%
12:00 +15°C° 0.3 mm 2 mps 747 mmHg 58%
13:00 +16°C° 0.3 mm 2 mps 747 mmHg 56%
14:00 +16°C° 0.3 mm 3 mps 747 mmHg 54%
15:00 +16°C° 0.3 mm 3 mps 747 mmHg 59%
16:00 +14°C° 0.3 mm 3 mps 747 mmHg 64%
17:00 +13°C° 0.3 mm 3 mps 746 mmHg 68%
18:00 +12°C° 0.8 mm 3 mps 747 mmHg 75%
19:00 +11°C° 0.8 mm 3 mps 747 mmHg 83%
20:00 +10°C° 0.8 mm 2 mps 747 mmHg 90%
21:00 +10°C° 0.7 mm 2 mps 747 mmHg 91%
22:00 +10°C° 0.7 mm 2 mps 746 mmHg 92%
23:00 +10°C° 0.7 mm 2 mps 746 mmHg 92%

16 April, Friday

Time Temperature Precipitation Wind Pressure Humidity
00:00 +10°C° 0.2 mm 2 mps 746 mmHg 93%
01:00 +9°C° 0.2 mm 3 mps 746 mmHg 93%
02:00 +9°C° 0.2 mm 3 mps 746 mmHg 94%
03:00 +9°C° 0 mm 3 mps 747 mmHg 94%
04:00 +8°C° 0 mm 3 mps 747 mmHg 94%
05:00 +7°C° 0 mm 3 mps 747 mmHg 95%
06:00 +7°C° 0 mm 4 mps 747 mmHg 90%
07:00 +8°C° 0 mm 4 mps 747 mmHg 86%
08:00 +10°C° 0 mm 4 mps 748 mmHg 82%
09:00 +11°C° 0.3 mm 4 mps 748 mmHg 81%
10:00 +11°C° 0.3 mm 4 mps 748 mmHg 80%
11:00 +11°C° 0.3 mm 4 mps 748 mmHg 79%
12:00 +11°C° 0.4 mm 3 mps 748 mmHg 80%
13:00 +11°C° 0.4 mm 3 mps 748 mmHg 81%
14:00 +11°C° 0.4 mm 3 mps 748 mmHg 82%
15:00 +12°C° 1 mm 2 mps 748 mmHg 84%
16:00 +10°C° 1 mm 2 mps 749 mmHg 86%
17:00 +10°C° 1 mm 2 mps 749 mmHg 88%
18:00 +9°C° 0.1 mm 2 mps 749 mmHg 89%
19:00 +9°C° 0.1 mm 2 mps 750 mmHg 91%
20:00 +8°C° 0.1 mm 2 mps 750 mmHg 93%
21:00 +8°C° 0.1 mm 2 mps 750 mmHg 93%
22:00 +8°C° 0.1 mm 2 mps 751 mmHg 94%
23:00 +8°C° 0.1 mm 2 mps 751 mmHg 94%

17 April, Saturday

Time Temperature Precipitation Wind Pressure Humidity
00:00 +8°C° 0.1 mm 2 mps 751 mmHg 94%
01:00 +8°C° 0.1 mm 2 mps 751 mmHg 94%
02:00 +8°C° 0.1 mm 2 mps 751 mmHg 94%
03:00 +8°C° 0.1 mm 2 mps 752 mmHg 95%
04:00 +8°C° 0.1 mm 2 mps 752 mmHg 95%
05:00 +8°C° 0.1 mm 3 mps 752 mmHg 96%
06:00 +8°C° 0.3 mm 3 mps 752 mmHg 95%
07:00 +9°C° 0.3 mm 3 mps 753 mmHg 94%
08:00 +9°C° 0.3 mm 3 mps 753 mmHg 93%
09:00 +8°C° 0.1 mm 4 mps 753 mmHg 91%
10:00 +8°C° 0.1 mm 4 mps 754 mmHg 89%
11:00 +10°C° 0.1 mm 4 mps 754 mmHg 87%
12:00 +10°C° 0 mm 4 mps 754 mmHg 84%
13:00 +10°C° 0 mm 5 mps 754 mmHg 82%
14:00 +10°C° 0 mm 5 mps 755 mmHg 79%
15:00 +12°C° 0 mm 5 mps 755 mmHg 75%
16:00 +12°C° 0 mm 5 mps 755 mmHg 72%
17:00 +12°C° 0 mm 5 mps 755 mmHg 68%
18:00 +12°C° 0 mm 5 mps 755 mmHg 67%
19:00 +10°C° 0 mm 5 mps 756 mmHg 67%
20:00 +9°C° 0 mm 5 mps 756 mmHg 66%
21:00 +8°C° 0 mm 5 mps 756 mmHg 67%
22:00 +7°C° 0 mm 5 mps 756 mmHg 68%
23:00 +7°C° 0 mm 5 mps 757 mmHg 68%

18 April, Sunday

Time Temperature Precipitation Wind Pressure Humidity
00:00 +6°C° 0 mm 5 mps 757 mmHg 70%
01:00 +5°C° 0 mm 5 mps 757 mmHg 72%
02:00 +5°C° 0 mm 5 mps 757 mmHg 74%
03:00 +3°C° 0 mm 5 mps 757 mmHg 75%
04:00 +3°C° 0 mm 5 mps 758 mmHg 76%
05:00 +3°C° 0 mm 5 mps 758 mmHg 77%
06:00 +3°C° 0 mm 5 mps 758 mmHg 74%
07:00 +5°C° 0 mm 5 mps 758 mmHg 71%
08:00 +6°C° 0 mm 5 mps 759 mmHg 68%
09:00 +8°C° 0 mm 5 mps 759 mmHg 64%
10:00 +9°C° 0 mm 5 mps 759 mmHg 60%
11:00 +12°C° 0 mm 5 mps 759 mmHg 56%
12:00 +13°C° 0 mm 5 mps 759 mmHg 56%
13:00 +13°C° 0 mm 5 mps 759 mmHg 55%
14:00 +14°C° 0 mm 5 mps 759 mmHg 54%
15:00 +13°C° 0 mm 5 mps 759 mmHg 60%
16:00 +12°C° 0 mm 4 mps 759 mmHg 65%
17:00 +11°C° 0 mm 3 mps 759 mmHg 71%
18:00 +10°C° 0 mm 3 mps 759 mmHg 72%
19:00 +10°C° 0 mm 2 mps 759 mmHg 73%
20:00 +9°C° 0 mm 2 mps 759 mmHg 75%
21:00 +9°C° 0 mm 2 mps 760 mmHg 73%
22:00 +9°C° 0 mm 3 mps 760 mmHg 71%
23:00 +9°C° 0 mm 3 mps 760 mmHg 70%
Show more